Home > Weather > Reims > Past weeks

Flag for France Past Weather in Reims, Champagne-Ardenne, France — Yesterday and Last 2 Weeks

Now
66 °F

Sunny.


Feels Like: 66 °F
Forecast: 52 / 73 °F
Wind: 5 mph from Northwest

Location: Chalons-Vatry

Current Time: Jul 26, 2016 at 10:03:59 PM

Latest Report: Jul 26, 2016 at 9:30 PM


Visibility: 10 mi

Pressure: 30.15 "Hg

Humidity: 73%

Dew Point: 57 °F

Location of ReimsLocation

Past Weather in Reims — Graph

°F

Reims Temperature Yesterday

Maximum temperature yesterday: 81 °F (at 4:00 PM)
Minimum temperature yesterday: 61 °F (at 5:00 AM)
Average temperature yesterday: 70 °F

High & Low Weather Summary for the Past Weeks

 TemperatureHumidityPressure
High91 °F (Jul 19, 4:00 PM)100% (Jul 12, 6:00 AM)30.36 "Hg (Jul 12, 6:00 AM)
Low45 °F (Jul 15, 5:30 AM)32% (Jul 19, 6:00 PM)29.92 "Hg (Jul 20, 7:00 AM)
Average68 °F75%30.12 "Hg
* Reported Jul 11 9:00 PM — Jul 26 9:00 PM, Reims, Weather by CustomWeather, © 2016

Note: Actual official high and low records may vary slightly from our data, if they occured in-between our weather recording intervals... More about our weather records

Advertising

Reims Weather History for the Previous 24 Hours

Scroll right to see more
 ConditionsComfort  
Time TempWeatherWind HumidityBarometerVisibility
9:00 PM
Tue, Jul 26
68 °FSunny.5 mph69%30.15 "Hg10 mi
8:30 PM68 °FSunny.7 mph69%30.15 "Hg10 mi
8:00 PM70 °FSunny.6 mph64%30.15 "Hg10 mi
7:30 PM73 °FPassing clouds.7 mph53%30.15 "HgN/A
7:00 PM72 °FPassing clouds.8 mph53%30.15 "HgN/A
6:30 PM73 °FScattered clouds.8 mph53%30.15 "HgN/A
6:00 PM73 °FPartly sunny.12 mph50%30.15 "HgN/A
5:30 PM73 °FPassing clouds.10 mph53%30.15 "HgN/A
5:00 PM73 °FPartly sunny.8 mph57%30.15 "HgN/A
4:30 PM73 °FScattered clouds.8 mph53%30.15 "HgN/A
4:00 PM73 °FPassing clouds.7 mph57%30.15 "HgN/A
3:30 PM73 °FScattered clouds.7 mph53%30.15 "HgN/A
3:00 PM73 °FPassing clouds.8 mph53%30.15 "HgN/A
2:30 PM72 °FPassing clouds.7 mph57%30.18 "HgN/A
2:00 PM72 °FPassing clouds.7 mph61%30.18 "HgN/A
1:30 PM72 °FPartly sunny.8 mph57%30.18 "HgN/A
1:00 PM70 °FScattered clouds.6 mph69%30.18 "HgN/A
12:30 PM72 °FPartly sunny.2 mph65%30.18 "HgN/A
12:00 PM68 °FScattered clouds.3 mph73%30.18 "HgN/A
11:30 AM68 °FPartly sunny.5 mph73%30.18 "HgN/A
11:00 AM66 °FOvercast.5 mph78%30.18 "HgN/A
10:30 AM64 °FOvercast.5 mph78%30.18 "HgN/A
10:00 AM64 °FPartly sunny.6 mph83%30.18 "HgN/A
9:30 AM63 °FOvercast.6 mph83%30.18 "HgN/A
9:00 AM61 °FOvercast.5 mph94%30.18 "HgN/A
8:30 AM61 °FOvercast.5 mph88%30.18 "HgN/A
8:00 AM59 °FOvercast.5 mph88%30.18 "HgN/A
7:30 AM59 °FOvercast.5 mph94%30.18 "HgN/A
7:00 AM59 °FMostly cloudy.5 mph94%30.15 "HgN/A
6:30 AM59 °FMostly cloudy.8 mph94%30.15 "HgN/A
6:00 AM59 °FRain. Partly cloudy.9 mph94%30.15 "Hg5 mi
5:30 AM59 °FOvercast.12 mph94%30.15 "HgN/A
5:00 AM59 °FRain. Fog.10 mph94%30.15 "Hg3 mi
4:30 AM61 °FLight rain. Partly cloudy.10 mph88%30.15 "HgN/A
4:00 AM63 °FLight rain. Partly cloudy.6 mph94%30.15 "HgN/A
3:30 AM63 °FMild.10 mph94%30.15 "HgN/A
3:00 AM63 °FPassing clouds.12 mph88%30.15 "HgN/A
2:30 AM66 °FPartly cloudy.12 mph94%30.15 "HgN/A
2:00 AM66 °FLight rain. Mostly cloudy.8 mph100%30.15 "Hg4 mi
1:30 AM66 °FRain. Mostly cloudy.7 mph100%30.15 "Hg5 mi
1:00 AM68 °FRain. Fog.7 mph94%30.12 "Hg3 mi
12:30 AM68 °FMild.12 mph94%30.15 "HgN/A
12:00 AM68 °FMild.5 mph88%30.12 "HgN/A
11:30 PM
Mon, Jul 25
68 °FMild.6 mph88%30.12 "HgN/A
11:00 PM70 °FSunny.6 mph83%30.15 "Hg10 mi
10:30 PM70 °FMild.6 mph88%30.15 "HgN/A
10:00 PM72 °FMild.5 mph78%30.12 "HgN/A
Weather by CustomWeather, © 2016

See weather overviewHow to use our weather pages